Location: Recife
(8.0585°S, 34.8848°W)
Time: 01:52:51
(UTC-03:00)

Courier 1B Rocket - Pass Details

Date: 16 April 2026
Orbit: 920 x 1201 km, 28.2° (Epoch: 14 May)

Event Time Altitude Azimuth Distance (km) Brightness Sun altitude
Exits shadow 03:48:52 36° 312° (NW) 1,436 5.5 -23.6°
Maximum altitude 03:51:36 75° 30° (NNE) 976 5.0 -22.9°
Drops below altitude 10° 03:58:11 10° 114° (ESE) 2,740 8.2 -21.3°
Sets 04:00:56 0° 116° (ESE) 3,732 9.0 -20.6°
